Weather History for Mazar-I-Sharif, Afghanistan

Change the Weather History Date:

Tuesday, February 11, 2014

  Actual Average Record
Temperature  
Mean Temperature 26 °F -  
Max Temperature 38 °F 55 °F - ()
Min Temperature 15 °F 35 °F - ()
Degree Days  
Heating Degree Days 38    
Moisture  
Dew Point 19 °F    
Average Humidity 66    
Maximum Humidity 93    
Minimum Humidity 41    
Precipitation  
Precipitation 0.00 in 0.05 in - ()
Sea Level Pressure  
Sea Level Pressure 30.23 in    
Wind  
Wind Speed 2 mph ()    
Max Wind Speed 7 mph    
Max Gust Speed -    
Visibility 4.3 miles    
Events      
T = Trace of Precipitation, MM = Missing Value Source: Averaged Metar Reports

Daily Weather History Graph

Daily Weather History Graph

Search for Another Location

Airport:

Trip Planner

Search our weather history database for the weather conditions in past years. The results will help you decide how hot, cold, wet, or windy it might be!

Date:

Astronomy

Feb. 11, 2014 Rise Set
Actual Time 6:54 AM AFT 5:37 PM AFT
Civil Twilight 6:27 AM AFT 6:03 PM AFT
Nautical Twilight 5:57 AM AFT 6:34 PM AFT
Astronomical Twilight 5:26 AM AFT 7:04 PM AFT
Moon 2:37 PM AFT (2/11) 4:10 AM AFT (2/11)
Length of Visible Light 11h 36m
Length of Day
10h 42m
Waxing Gibbous, 88% of the Moon is Illuminated
Feb 11
Waxing Gibbous
Feb 15
Full
Feb 22
Last Quarter
Mar 1
New
Mar 8
First Quarter

Hourly Weather History & Observations

Time (AFT) Temp. Windchill Dew Point Humidity Pressure Visibility Wind Dir Wind Speed Gust Speed Precip Events Conditions
12:20 AM 19.4 °F - 17.6 °F 93% 30.24 in 2.2 mi Variable 1.2 mph - N/A   Mostly Cloudy
12:30 AM 20 °F - 17 °F 81% 30.37 in 2 mi 2.2 mph - -   Mist
1:20 AM 21.2 °F - 17.6 °F 86% 30.24 in 1.9 mi ENE 2.3 mph - N/A   Mostly Cloudy
1:30 AM 20 °F - 18 °F 86% 30.34 in 2 mi ENE 2.2 mph - -   Mist
2:20 AM 19.4 °F - 15.8 °F 86% 30.21 in 1.6 mi West 2.3 mph - N/A   Scattered Clouds
2:30 AM 19 °F - 16 °F 81% 30.34 in 2 mi West 2.2 mph - -   Mist
3:20 AM 19.4 °F 12.8 °F 14.0 °F 80% 30.21 in 3.7 mi West 4.6 mph - N/A   Scattered Clouds
3:30 AM 19 °F - 14 °F 74% 30.33 in 4 mi West 4.5 mph - -   Mist
4:20 AM 21.2 °F - 15.8 °F 80% 30.18 in 3.7 mi East 2.3 mph - N/A   Partly Cloudy
4:30 AM 21 °F - 16 °F 72% 30.30 in 4 mi East 2.2 mph - -   Haze
5:20 AM 19.4 °F - 12.2 °F 74% 30.18 in 3.7 mi Variable 2.3 mph - N/A   Clear
5:30 AM 19 °F - 13 °F 68% 30.31 in 4 mi 2.2 mph - -   Haze
6:20 AM 19.4 °F 11.5 °F 14.0 °F 80% 30.18 in 4.3 mi WSW 5.8 mph - N/A   Clear
6:30 AM 19 °F - 14 °F 74% 30.30 in 4 mi WSW 6.7 mph - -   Mist
7:20 AM 21.2 °F - 14.0 °F 74% 30.21 in 4.3 mi Variable 1.2 mph - N/A   Partly Cloudy
7:30 AM 21 °F - 15 °F 67% 30.31 in 4 mi 2.2 mph - -   Haze
8:20 AM 24.8 °F - 15.8 °F 69% 30.21 in 4.3 mi SSE 2.3 mph - N/A   Partly Cloudy
8:30 AM 24 °F - 15 °F 57% 30.31 in 4 mi SSE 2.2 mph - -   Haze
9:20 AM 26.6 °F - 15.8 °F 64% 30.21 in 5.0 mi NE 2.3 mph - N/A   Partly Cloudy
9:30 AM 26 °F - 17 °F 56% 30.30 in 5 mi NE 2.2 mph - -   Clear
10:20 AM 28.4 °F 24.6 °F 17.6 °F 64% 30.21 in 5.0 mi West 3.5 mph - N/A   Partly Cloudy
10:30 AM 28 °F - 17 °F 52% 30.30 in 5 mi West 4.5 mph - -   Scattered Clouds
11:20 AM 32.0 °F - 19.4 °F 60% 30.18 in 5.0 mi NNE 1.2 mph - N/A   Partly Cloudy
11:30 AM 33 °F - 20 °F 46% 30.27 in 5 mi NNE 2.2 mph - -   Clear
12:20 PM 33.8 °F - 21.2 °F 60% 30.18 in 5.0 mi West 2.3 mph - N/A   Partly Cloudy
12:30 PM 33 °F - 21 °F 49% 30.25 in 5 mi West 2.2 mph - -   Clear
1:20 PM 37.4 °F - 21.2 °F 52% 30.15 in 5.6 mi NNW 1.2 mph - N/A   Partly Cloudy
1:30 PM 36 °F - 21 °F 41% 30.22 in 6 mi NNW 2.2 mph - -   Clear
2:20 PM 35.6 °F - 23.0 °F 60% 30.15 in 5.6 mi NNE 2.3 mph - N/A   Scattered Clouds
2:30 PM 35 °F - 22 °F 47% 30.22 in 6 mi NNE 2.2 mph - -   Clear
3:20 PM 35.6 °F - 23.0 °F 60% 30.15 in 5.0 mi NE 2.3 mph - N/A   Mostly Cloudy
3:30 PM 36 °F - 23 °F 46% 30.21 in 5 mi NE 2.2 mph - -   Scattered Clouds
4:20 PM 37.4 °F - 23.0 °F 56% 30.15 in 5.0 mi Calm Calm - N/A   Mostly Cloudy
5:20 PM 35.6 °F - 23.0 °F 60% 30.15 in 5.0 mi Calm Calm - N/A   Mostly Cloudy
5:30 PM 35 °F - 22 °F 48% 30.21 in 5 mi Calm Calm - -   Scattered Clouds
6:20 PM 35.6 °F - 24.8 °F 65% 30.15 in 5.0 mi SW 2.3 mph - N/A   Mostly Cloudy
6:30 PM 35 °F - 25 °F 56% 30.22 in 5 mi SW 2.2 mph - -   Scattered Clouds
7:20 PM 35.6 °F - 24.8 °F 65% 30.15 in 5.0 mi East 2.3 mph - N/A   Scattered Clouds
7:30 PM 35 °F - 25 °F 55% 30.22 in 5 mi East 2.2 mph - -   Partly Cloudy
8:20 PM 32.0 °F - 24.8 °F 75% 30.15 in 5.0 mi SE 2.3 mph - N/A   Scattered Clouds
8:30 PM 32 °F - 24 °F 62% 30.24 in 5 mi SE 2.2 mph - -   Partly Cloudy
9:20 PM 28.4 °F - 23.0 °F 80% 30.15 in 5.0 mi WSW 1.2 mph - N/A   Partly Cloudy
9:30 PM 28 °F - 22 °F 72% 30.26 in 5 mi WSW 2.2 mph - -   Scattered Clouds
10:20 PM 28.4 °F - 19.4 °F 69% 30.15 in 3.7 mi Variable 2.3 mph - N/A   Mostly Cloudy
10:30 PM 28 °F - 19 °F 58% 30.26 in 4 mi 2.2 mph - -   Haze
11:20 PM 26.6 °F 22.6 °F 21.2 °F 80% 30.18 in 3.7 mi SW 3.5 mph - N/A   Mostly Cloudy
11:30 PM 26 °F - 21 °F 76% 30.27 in 4 mi SW 4.5 mph - -   Mist